Flight Track Log - Related Links

Times and Time Zones

All times are in EDT time to prevent confusion due to time zone crossing. See the SIL3619 flight status page for this flight to view local times or setup timezone preferences in your user account.

Time Position Orientation Groundspeed Altitude Reporting Facility
EDT Latitude Longitude Course Direction KTS MPH feet Rate Location/Type
Tue 01:12:58 PM 34.2581 -88.9047 244° Southwest 240 276 5,900  Level Memphis Center
Tue 01:13:58 PM 34.2336 -88.9653 244° Southwest 203 234 5,900 600 Level Memphis Center
Tue 01:14:58 PM 34.2072 -89.0336 245° Southwest 212 244 7,100 1,650 Climbing Memphis Center
Tue 01:15:58 PM 34.1681 -89.0642 213° Southwest 188 216 9,200 1,800 Climbing Memphis Center
Tue 01:16:58 PM 34.1414 -89.1100 235° Southwest 162 186 10,700 1,450 Climbing Memphis Center
Tue 01:17:58 PM 34.1250 -89.1578 248° West 157 181 12,100 1,350 Climbing Memphis Center
Tue 01:18:58 PM 34.1067 -89.2033 244° Southwest 157 181 13,400 900 Climbing Memphis Center
Tue 01:19:58 PM 34.0822 -89.2511 238° Southwest 162 186 13,900 300 Climbing Memphis Center
Tue 01:20:58 PM 34.0536 -89.3117 240° Southwest 193 222 14,000 50 Climbing Memphis Center
Tue 01:21:58 PM 34.0186 -89.3772 237° Southwest 220 253 14,000  Level Memphis Center
Tue 01:22:58 PM 33.9708 -89.4331 224° Southwest 232 267 14,000  Level Memphis Center
Tue 01:23:58 PM 33.9233 -89.4911 225° Southwest 242 278 14,000  Level Memphis Center
Tue 01:24:58 PM 33.8819 -89.5439 227° Southwest 247 284 14,000  Level Memphis Center
Tue 01:25:58 PM 33.8344 -89.6069 228° Southwest 247 284 14,000  Level Memphis Center
Tue 01:26:58 PM 33.7908 -89.6672 229° Southwest 247 284 14,000  Level Memphis Center
Tue 01:27:58 PM 33.7411 -89.7278 225° Southwest 247 284 14,000  Level Memphis Center
Tue 01:28:58 PM 33.7019 -89.7928 234° Southwest 247 284 14,000  Level Memphis Center
Tue 01:29:58 PM 33.6686 -89.8681 242° Southwest 247 284 14,000  Level Memphis Center
Tue 01:30:58 PM 33.6419 -89.9431 247° West 247 284 14,000  Level Memphis Center
Tue 01:31:58 PM 33.6169 -90.0206 249° West 252 290 14,000  Level Memphis Center
Tue 01:32:58 PM 33.5839 -90.0903 240° Southwest 252 290 14,000  Level Memphis Center
Tue 01:33:58 PM 33.5361 -90.1653 233° Southwest 252 290 14,000 -400 Level Memphis Center
Tue 01:34:58 PM 33.4944 -90.2303 232° Southwest 257 296 13,200 -900 Descending Memphis Center
Tue 01:35:58 PM 33.4547 -90.2950 234° Southwest 257 296 12,200 -1,050 Descending Memphis Center
Tue 01:36:58 PM 33.4297 -90.3647 247° West 242 278 11,100 -1,050 Descending Memphis Center
Tue 01:37:58 PM 33.4358 -90.4444 275° West 229 264 10,100 -1,000 Descending Memphis Center
Tue 01:38:58 PM 33.4381 -90.5264 272° West 240 276 9,100 -1,050 Descending Memphis Center
Tue 01:39:58 PM 33.4442 -90.6036 275° West 240 276 8,000 -1,200 Descending Memphis Center
Tue 01:40:58 PM 33.4628 -90.6833 286° West 245 282 6,700 -1,400 Descending Memphis Center
Tue 01:41:58 PM 33.4833 -90.7608 288° West 250 288 5,200 -1,500 Descending Memphis Center
Tue 01:42:58 PM 33.5019 -90.8381 286° West 245 282 3,700 -1,500 Descending Memphis Center
Tue 01:43:58 PM 33.5286 -90.9081 295° West 240 276 2,200 -950 Descending Memphis Center
Tue 01:44:58 PM 33.5619 -90.9531 312° West 215 247 1,800 5,900 Descending Memphis Center
Tue 01:45:58 PM 33.5928 -91.0156 301° West 215 247 14,000 12,200 Climbing Memphis Center

Login

Don't have an account? Register now (free) for customized features, flight alerts, and more!